Flag for U.S.A. Weather past 2 weeks in Freehold, New Jersey, U.S.A.

Now
72 °F

More clouds than sun.


Feels Like: 71 °F
Forecast: 65 / 80 °F
Wind: No wind

Location: Belmar-Farmdale

Current Time: Jul 28, 2014 at 8:45:11 AM

Latest Report: Jul 28, 2014 at 8:15 AM


Visibility: 10 mi

Pressure: 29.57 "Hg

Humidity: 83%

Dew point: 66 °F

Location of FreeholdLocation

Historic Weather in Freehold — Graph

°F

Freehold temperature yesterday

Maximum temperature yesterday: 90 °F (at 3:55 PM)
Minimum temperature yesterday: 70 °F (at 12:35 AM)
Average temperature yesterday: 78 °F

Past Weeks' High & Low Weather Summary

 TemperatureHumidityPressure
High90 °F (Jul 27, 3:55 PM)94% (Jul 14, 10:35 PM)30.25 "Hg (Jul 14, 10:35 PM)
Low61 °F (Jul 18, 3:15 AM)32% (Jul 18, 1:35 PM)29.55 "Hg (Jul 28, 4:15 AM)
Average73 °F70%29.98 "Hg
* Reported Jul 13 7:15 AM — Jul 28 7:55 AM, Freehold, Weather by CustomWeather, © 2014

Note: Actual official high and low records may vary slightly from our data, if they occured in-between our weather recording intervals... More about our weather records

Advertising

Freehold weather history for previous 24 hours

 ConditionsComfort  
Time TempWeatherWind HumidityBarometerVisibility
7:55 AM
Jul 28
72 °FMore clouds than sun.5 mph83%29.57 "Hg10 mi
7:35 AM70 °FPartly sunny.3 mph83%29.57 "Hg10 mi
7:15 AM70 °FScattered clouds.3 mph83%29.57 "Hg10 mi
6:55 AM68 °FPassing clouds.No wind88%29.56 "Hg10 mi
6:35 AM68 °FClear.No wind83%29.57 "Hg10 mi
6:15 AM68 °FClear.3 mph83%29.56 "Hg10 mi
5:55 AM66 °FClear.5 mph88%29.56 "Hg10 mi
5:35 AM68 °FClear.6 mph83%29.57 "Hg10 mi
5:15 AM68 °FClear.5 mph83%29.56 "Hg10 mi
4:55 AM68 °FPassing clouds.No wind83%29.56 "Hg10 mi
4:35 AM68 °FPassing clouds.3 mph88%29.56 "Hg10 mi
4:15 AM70 °FPassing clouds.5 mph83%29.55 "Hg10 mi
3:55 AM70 °FMostly cloudy.3 mph83%29.56 "Hg10 mi
3:35 AM70 °FThunderstorms. Overcast.6 mph83%29.59 "Hg10 mi
3:15 AM70 °FOvercast.9 mph83%29.61 "Hg10 mi
2:55 AM70 °FThunderstorms. Overcast.9 mph83%29.62 "Hg10 mi
2:35 AM70 °FThunderstorms. Partly cloudy.12 mph83%29.62 "Hg3 mi
2:15 AM73 °FThunderstorms. Mostly cloudy.12 mph89%29.62 "Hg7 mi
1:55 AM75 °FThundershowers. Mostly cloudy.6 mph83%29.61 "Hg10 mi
1:35 AM75 °FThundershowers. Mostly cloudy.No wind83%29.64 "Hg8 mi
1:15 AM75 °FPassing clouds.3 mph83%29.65 "Hg10 mi
12:55 AM75 °FClear.5 mph83%29.66 "Hg10 mi
12:35 AM75 °FClear.5 mph83%29.67 "Hg10 mi
12:15 AM75 °FClear.No wind78%29.67 "Hg10 mi
11:55 PM
Jul 27
77 °FClear.5 mph79%29.68 "Hg10 mi
11:35 PM77 °FClear.5 mph79%29.68 "Hg10 mi
10:35 PM79 °FPassing clouds.6 mph74%29.69 "Hg10 mi
10:15 PM79 °FClear.5 mph74%29.70 "Hg10 mi
9:55 PM79 °FClear.6 mph74%29.70 "Hg10 mi
9:35 PM79 °FClear.5 mph74%29.70 "Hg10 mi
9:15 PM79 °FClear.6 mph74%29.70 "Hg10 mi
8:55 PM79 °FSunny.6 mph74%29.69 "Hg10 mi
8:35 PM81 °FSunny.7 mph70%29.70 "Hg10 mi
8:15 PM81 °FSunny.5 mph70%29.70 "Hg10 mi
7:35 PM82 °FSunny.9 mph66%29.69 "Hg10 mi
7:15 PM82 °FSunny.8 mph66%29.69 "Hg10 mi
6:55 PM84 °FSunny.8 mph66%29.69 "Hg10 mi
6:35 PM86 °FSunny.6 mph62%29.69 "Hg10 mi
6:15 PM86 °FSunny.3 mph59%29.69 "Hg10 mi
5:55 PM88 °FPassing clouds.5 mph55%29.69 "Hg10 mi
5:35 PM88 °FScattered clouds.8 mph55%29.70 "Hg10 mi
5:15 PM88 °FSunny.5 mph52%29.71 "Hg10 mi
4:35 PM88 °FPassing clouds.5 mph55%29.72 "Hg10 mi
4:15 PM88 °FSunny.9 mph55%29.73 "Hg10 mi
3:55 PM90 °FSunny.12 mph52%29.73 "Hg10 mi
3:35 PM88 °FSunny.8 mph55%29.73 "Hg10 mi
3:15 PM88 °FPassing clouds.7 mph55%29.74 "Hg10 mi
2:55 PM88 °FPassing clouds.7 mph55%29.74 "Hg10 mi
2:35 PM86 °FPartly sunny.7 mph59%29.74 "Hg10 mi
2:15 PM88 °FMore clouds than sun.6 mph55%29.74 "Hg10 mi
1:55 PM86 °FMostly cloudy.8 mph59%29.74 "Hg10 mi
1:35 PM84 °FMostly cloudy.9 mph62%29.74 "Hg10 mi
1:15 PM86 °FPartly sunny.10 mph59%29.75 "Hg10 mi
12:55 PM82 °FOvercast.7 mph66%29.75 "Hg10 mi
12:35 PM82 °FMore clouds than sun.5 mph66%29.76 "Hg10 mi
12:15 PM82 °FPartly sunny.7 mph66%29.76 "Hg10 mi
11:55 AM82 °FBroken clouds.10 mph66%29.77 "Hg10 mi
11:35 AM81 °FCloudy.8 mph70%29.77 "Hg10 mi
11:15 AM77 °FBroken clouds.6 mph83%29.78 "Hg10 mi
10:35 AM75 °FCloudy.7 mph89%29.79 "Hg10 mi
10:15 AM73 °FMostly cloudy.6 mph89%29.79 "Hg5 mi
9:55 AM73 °FMore clouds than sun.5 mph89%29.80 "Hg7 mi
9:35 AM73 °FMostly cloudy.8 mph89%29.80 "Hg5 mi
9:15 AM73 °FMostly cloudy.7 mph89%29.80 "Hg5 mi
8:55 AM73 °FCloudy.7 mph89%29.81 "Hg10 mi
8:35 AM73 °FBroken clouds.9 mph89%29.80 "Hg10 mi
8:15 AM73 °FBroken clouds.6 mph89%29.80 "Hg9 mi
Weather by CustomWeather, © 2014

See weather overviewHow to use our weather pages